Showing default

WILDFIRE 4, 57756

Orbit data source: Space-Track

WILDFIRE 4, 57756 is a payload satellite owned by SDA (US) in LEO that was launched on Sat, 02 Sep 2023 UTC via an FALCON 9 launch vehicle from the Air Force Western Test Range (AFWTR). Payload-class satellites include a variety of spacecraft equipped with specific instruments for various scientific and technological missions. These include communications satellites like Starlink; space stations such as the ISS; scientific satellites like the Hubble; Earth observation satellites from companies like Planet Labs, Umbra, and HawkEye 360; GPS; miniature CubeSats for education and research; and military/defense satellites.

Loading next visibility...
Identifier
57756, 2023-133A
Orbit
LEO
Country
Flag of USUS
Related business
Manufacturer
TYVAK/LMSSD
Mission
Operational Defense Communications
Bus & Motor
MAVERICKS, Unknown motor
Mass
~300 kg wet, ~300 kg dry
Launch date (UTC)
2023-09-02 (3 years ago)
Launch vehicle
FALCON 9
Launch site
Air Force Western Test Range (AFWTR)
Object type
Payload
Rocket body
Debris
Shape & HBR
Box + 2 Pan, 1.3 m
Radar Cross Section
0.713 m², Large (>1 m²)

Expand to show TLE details & history
Last TLE update: 3 days ago

TLE from 3 days ago
0 WILDFIRE 4
1 57756U 23133A   26170.95533841  .00000089  00000-0  67193-4 0  9993
2 57756  81.0020   3.5086 0009747 353.1185   6.9837 13.86357943141501
Epoch: 2026-06-19T22:55Z
TLE epoch observation values (Epoch: 2026-06-19T22:55:41.238Z)
Latitude
0.00003°
Longitude
111.40989°
Altitude
937.198 km
Speed
7.387 km/s
True Right ascension
00h 14m 02s
True Declination
0° 00' 00"
Sunlit
Object was in daylight at epoch
Visualization orbit readout
Latitude
Unknown
Longitude
Unknown
Altitude
Unknown
Speed
Unknown
Apparent Right ascension
Unknown
Apparent Declination
Unknown
Sunlit
N/A
Visualization observer readout
Local Sidereal Time
00:50:27
Azimuth
Unknown
Elevation
Unknown
Doppler factor
Unknown
Orbital elements
Apogee altitude
945.771 km
Perigee altitude
931.508 km
Semi-major axis
7,316.777 km
Eccentricity
0.00097
Inclination
81.002°
RAAN
3.5086°
Arg. of periapsis
353.1185°
True anomaly
6.9973°
Mean anomaly
6.9837°
Eccentric anomaly
6.9905°
Mean motion
3.46788 °/min
Orbital period
103.81 mins
BSTAR
0.000067193
Loading maneuver chart data...
Computing Atmospheric mass density...
Loading historical data...
Loading historical data...
Loading historical data...
Loading historical data...
Loading historical data...
Loading historical data...
Loading historical data...

Documentation

Showing up to 5 results
|